When you browse on this site, cookies collect data to enhance your experience and personalize the content and advertising you see.
Visit our Privacy Policy to learn more. By continuing to use the site, you agree to this use of cookies and data.
  • In Hungary
  • List of Countries
  • For 7 days
  • Water Temperature
  • Satellite Maps
  • Weather Map
  • News
  • Weather Widgets
  • user-avatar
    Login

    Hourly Weather Pustosely

    Today, 16 November, Friday

    Time Temperature Precipitation Wind Pressure Humidity
    00:00 -1°C° 0 mm 1 mps 760 mmHg 84%
    01:00 -1°C° 0 mm 1 mps 760 mmHg 83%
    02:00 -2°C° 0 mm 1 mps 761 mmHg 77%
    03:00 -2°C° 0 mm 1 mps 761 mmHg 76%
    04:00 -2°C° 0 mm 1 mps 761 mmHg 75%
    05:00 -5°C° 0 mm 2 mps 761 mmHg 75%
    06:00 -4°C° 0 mm 2 mps 762 mmHg 74%
    07:00 -4°C° 0 mm 2 mps 762 mmHg 73%
    08:00 -4°C° 0 mm 2 mps 762 mmHg 72%
    09:00 -3°C° 0 mm 2 mps 763 mmHg 67%
    10:00 -2°C° 0 mm 2 mps 763 mmHg 63%
    11:00 -1°C° 0 mm 2 mps 763 mmHg 59%
    12:00 -1°C° 0 mm 2 mps 763 mmHg 60%
    13:00 +1°C° 0 mm 1 mps 763 mmHg 62%
    14:00 +2°C° 0 mm 1 mps 763 mmHg 63%
    15:00 +1°C° 0 mm 1 mps 763 mmHg 64%
    16:00 0°C° 0 mm 1 mps 763 mmHg 65%
    17:00 -3°C° 0 mm 2 mps 763 mmHg 66%
    18:00 -4°C° 0 mm 2 mps 763 mmHg 64%
    19:00 -2°C° 0 mm 1 mps 763 mmHg 63%
    20:00 -2°C° 0 mm 1 mps 764 mmHg 61%
    21:00 -2°C° 0 mm 1 mps 763 mmHg 59%
    22:00 -2°C° 0 mm 1 mps 763 mmHg 57%
    23:00 -2°C° 0 mm 1 mps 763 mmHg 55%

    Tomorrow, 17 November, Saturday

    Time Temperature Precipitation Wind Pressure Humidity
    00:00 -2°C° 0 mm 1 mps 763 mmHg 54%
    01:00 -2°C° 0 mm 1 mps 763 mmHg 53%
    02:00 -3°C° 0 mm 0 mps 763 mmHg 52%
    03:00 -3°C° 0 mm 0 mps 763 mmHg 51%
    04:00 -3°C° 0 mm 0 mps 763 mmHg 50%
    05:00 -3°C° 0 mm 0 mps 762 mmHg 50%
    06:00 -3°C° 0 mm 0 mps 762 mmHg 50%
    07:00 -2°C° 0 mm 1 mps 762 mmHg 51%
    08:00 -2°C° 0 mm 1 mps 762 mmHg 51%
    09:00 -1°C° 0 mm 1 mps 762 mmHg 50%
    10:00 0°C° 0 mm 1 mps 761 mmHg 50%
    11:00 +1°C° 0 mm 1 mps 761 mmHg 49%
    12:00 -1°C° 0 mm 2 mps 760 mmHg 52%
    13:00 -1°C° 0 mm 2 mps 759 mmHg 55%
    14:00 -1°C° 0 mm 2 mps 759 mmHg 57%
    15:00 -1°C° 0 mm 2 mps 758 mmHg 60%
    16:00 -2°C° 0 mm 3 mps 758 mmHg 63%
    17:00 -4°C° 0 mm 3 mps 757 mmHg 65%
    18:00 -2°C° 0 mm 3 mps 756 mmHg 66%
    19:00 -2°C° 0 mm 3 mps 756 mmHg 66%
    20:00 -3°C° 0 mm 4 mps 755 mmHg 67%
    21:00 -3°C° 0 mm 4 mps 754 mmHg 72%
    22:00 -3°C° 0 mm 4 mps 753 mmHg 76%
    23:00 -3°C° 0 mm 4 mps 753 mmHg 81%

    Day after tomorrow, 18 November, Sunday

    Time Temperature Precipitation Wind Pressure Humidity
    00:00 -3°C° 0 mm 4 mps 752 mmHg 84%
    01:00 -3°C° 0 mm 4 mps 751 mmHg 87%
    02:00 -3°C° 0 mm 4 mps 750 mmHg 91%
    03:00 -2°C° 0.1 mm 4 mps 749 mmHg 92%
    04:00 -2°C° 0.1 mm 4 mps 748 mmHg 93%
    05:00 -2°C° 0.1 mm 4 mps 747 mmHg 95%
    06:00 -2°C° 0.1 mm 4 mps 747 mmHg 95%
    07:00 -1°C° 0.1 mm 4 mps 746 mmHg 95%
    08:00 0°C° 0.1 mm 3 mps 746 mmHg 96%
    09:00 0°C° 0.1 mm 3 mps 746 mmHg 96%
    10:00 0°C° 0.1 mm 3 mps 745 mmHg 96%
    11:00 +1°C° 0.1 mm 3 mps 745 mmHg 96%
    12:00 +1°C° 0.1 mm 3 mps 745 mmHg 96%
    13:00 +2°C° 0.1 mm 2 mps 745 mmHg 97%
    14:00 +2°C° 0.1 mm 2 mps 745 mmHg 97%
    15:00 +2°C° 0.1 mm 2 mps 744 mmHg 97%
    16:00 +1°C° 0.1 mm 2 mps 744 mmHg 98%
    17:00 +1°C° 0.1 mm 2 mps 744 mmHg 98%
    18:00 +1°C° 0.2 mm 2 mps 744 mmHg 97%
    19:00 +1°C° 0.2 mm 2 mps 744 mmHg 97%
    20:00 +1°C° 0.2 mm 2 mps 744 mmHg 97%
    21:00 +1°C° 0.1 mm 2 mps 744 mmHg 97%
    22:00 +1°C° 0.1 mm 2 mps 745 mmHg 97%
    23:00 +1°C° 0.1 mm 2 mps 745 mmHg 97%

    19 November, Monday

    Time Temperature Precipitation Wind Pressure Humidity
    00:00 +1°C° 0.1 mm 2 mps 745 mmHg 97%
    01:00 +1°C° 0.1 mm 2 mps 746 mmHg 97%
    02:00 +1°C° 0.1 mm 2 mps 746 mmHg 96%
    03:00 0°C° 0.1 mm 3 mps 746 mmHg 96%
    04:00 0°C° 0.1 mm 3 mps 746 mmHg 96%
    05:00 0°C° 0.1 mm 3 mps 746 mmHg 96%
    06:00 0°C° 0.1 mm 3 mps 746 mmHg 96%
    07:00 0°C° 0.1 mm 3 mps 747 mmHg 95%
    08:00 0°C° 0.1 mm 3 mps 747 mmHg 95%
    09:00 0°C° 0.2 mm 3 mps 747 mmHg 95%
    10:00 0°C° 0.2 mm 3 mps 748 mmHg 95%
    11:00 0°C° 0.2 mm 3 mps 748 mmHg 94%
    12:00 0°C° 0.1 mm 3 mps 748 mmHg 94%
    13:00 0°C° 0.1 mm 3 mps 749 mmHg 93%
    14:00 0°C° 0.1 mm 3 mps 749 mmHg 93%
    15:00 0°C° 0.1 mm 3 mps 749 mmHg 93%
    16:00 0°C° 0.1 mm 3 mps 750 mmHg 93%
    17:00 -1°C° 0.1 mm 3 mps 750 mmHg 93%
    18:00 -1°C° 0.2 mm 3 mps 750 mmHg 93%
    19:00 -2°C° 0.2 mm 4 mps 751 mmHg 92%
    20:00 -2°C° 0.2 mm 4 mps 751 mmHg 91%
    21:00 -3°C° 0 mm 4 mps 751 mmHg 90%
    22:00 -4°C° 0 mm 4 mps 752 mmHg 88%
    23:00 -4°C° 0 mm 3 mps 752 mmHg 87%

    20 November, Tuesday

    Time Temperature Precipitation Wind Pressure Humidity
    00:00 -5°C° 0 mm 3 mps 752 mmHg 86%
    01:00 -5°C° 0 mm 3 mps 752 mmHg 86%
    02:00 -6°C° 0 mm 3 mps 752 mmHg 86%
    03:00 -5°C° 0 mm 3 mps 752 mmHg 85%
    04:00 -5°C° 0 mm 3 mps 752 mmHg 85%
    05:00 -5°C° 0 mm 3 mps 752 mmHg 85%
    06:00 -5°C° 0 mm 4 mps 752 mmHg 85%
    07:00 -5°C° 0 mm 4 mps 752 mmHg 85%
    08:00 -5°C° 0 mm 4 mps 752 mmHg 85%
    09:00 -4°C° 0 mm 4 mps 752 mmHg 83%
    10:00 -3°C° 0 mm 4 mps 752 mmHg 81%
    11:00 -2°C° 0 mm 4 mps 752 mmHg 80%
    12:00 -2°C° 0 mm 4 mps 752 mmHg 79%
    13:00 -2°C° 0 mm 4 mps 751 mmHg 78%
    14:00 -1°C° 0 mm 3 mps 751 mmHg 77%
    15:00 -1°C° 0 mm 3 mps 751 mmHg 78%
    16:00 -2°C° 0 mm 3 mps 751 mmHg 79%
    17:00 -2°C° 0 mm 3 mps 751 mmHg 80%
    18:00 -2°C° 0 mm 3 mps 750 mmHg 81%
    19:00 -4°C° 0 mm 3 mps 750 mmHg 82%
    20:00 -4°C° 0 mm 3 mps 750 mmHg 83%
    21:00 -4°C° 0 mm 3 mps 750 mmHg 85%
    22:00 -3°C° 0 mm 2 mps 750 mmHg 88%
    23:00 -3°C° 0 mm 2 mps 750 mmHg 91%

    21 November, Wednesday

    Time Temperature Precipitation Wind Pressure Humidity
    00:00 -3°C° 0 mm 2 mps 750 mmHg 91%
    01:00 -3°C° 0 mm 2 mps 750 mmHg 92%
    02:00 -3°C° 0 mm 2 mps 749 mmHg 93%
    03:00 -3°C° 0 mm 2 mps 749 mmHg 93%
    04:00 -3°C° 0 mm 2 mps 749 mmHg 93%
    05:00 -3°C° 0 mm 2 mps 749 mmHg 92%
    06:00 -3°C° 0 mm 2 mps 749 mmHg 92%
    07:00 -3°C° 0 mm 2 mps 749 mmHg 92%
    08:00 -4°C° 0 mm 3 mps 749 mmHg 92%
    09:00 -4°C° 0 mm 3 mps 749 mmHg 91%
    10:00 -4°C° 0 mm 3 mps 748 mmHg 89%
    11:00 -2°C° 0 mm 3 mps 748 mmHg 87%
    12:00 -2°C° 0 mm 3 mps 748 mmHg 87%
    13:00 -3°C° 0 mm 4 mps 747 mmHg 87%
    14:00 -3°C° 0 mm 4 mps 747 mmHg 86%
    15:00 -3°C° 0 mm 4 mps 747 mmHg 87%
    16:00 -3°C° 0 mm 4 mps 747 mmHg 88%
    17:00 -4°C° 0 mm 4 mps 746 mmHg 89%
    18:00 -4°C° 0 mm 4 mps 746 mmHg 89%
    19:00 -4°C° 0 mm 4 mps 746 mmHg 89%
    20:00 -5°C° 0 mm 4 mps 746 mmHg 90%
    21:00 -5°C° 0 mm 4 mps 746 mmHg 89%
    22:00 -6°C° 0 mm 5 mps 745 mmHg 87%
    23:00 -6°C° 0 mm 5 mps 745 mmHg 86%
    Show more